www.pogodaiklimat.ru

Погода и климат >> Архив погоды >> Индонезия >> Банда-Ачех


ПОГОДА в Банда-Ачехе

  • Прогноз погоды в Банда-Ачехе
  • Монитор погоды в Банда-Ачехе

АРХИВ ПОГОДЫ в Банда-Ачехе

Время (UTC), дата Ветер
(напр.,м/с)
 
Видим.   Явления Облачность Т
(С)
Тd
(С)
f
(%)
Тe
(С)
Тes
(С)
Комфортность P
(гПа)
Po
(гПа)
Тmin
(С)
Tmax
(С)
R
(мм)
R24
(мм)
S
(см)
00 18.06 СВ 2 10 км 8/5 500 м
[Cu med, cong As op Ci fib]
+24.8 +22.0 84 +32 +32 очень
душно
1009.9 1007.5 +24.6
03 18.06 ЮВ 3 10 км 6/3 570 м
[Sc Ac trans Ci fib]
+29.6 +23.2 69 +40 +45 очень
душно
1009.8 1007.4
06 18.06 Ю 6 10 км 6/3 570 м
[Sc Ac trans Ci fib]
+32.8 +22.3 54 +42 +47 опасность
перегрева
1008.7 1006.3
09 18.06 З 2 10 км 8/4 540 м
[Sc Ac trans Ci fib]
+33.6 +19.1 42 +39 +42 очень
душно
1006.7 1004.3
12 18.06 С 3 10 км 9/5 540 м
[Sc Ac trans Ci fib]
+30.2 +20.9 58 +38 +38 очень
душно
1008.5 1006.1 +34.4
15 18.06 ЮВ 3 9000 м 9/5 500 м
[Cu Sc Ac trans Ci fib]
+28.0 +21.7 69 +36 +36 очень
душно
1009.9 1007.5
18 18.06 СЗ 2 8000 м 8/4 540 м
[Sc As op Ci fib]
+26.2 +21.3 74 +33 +33 очень
душно
1009.2 1006.8
21 18.06 В 2 8000 м 8/4 540 м
[Sc As op Ci fib]
+25.8 +21.5 77 +33 +33 очень
душно
1008.6 1006.2
00 19.06 С 2 8000 м 8/4 540 м
[Sc As op Ci fib]
+26.0 +22.4 81 +34 +34 очень
душно
1008.6 1006.2 +24.0
03 19.06 С 5 10 км 8/4 570 м
[Sc Ac trans Ci fib]
+31.2 +23.1 62 +41 +44 опасность
перегрева
1009.2 1006.8
06 19.06 Ю 5 10 км 8/4 600 м
[Sc Ac trans Ci fib]
+34.0 +22.1 50 +43 +47 опасность
перегрева
1008.1 1005.7
09 19.06 ЮЗ 5 10 км 6/3 570 м
[Cu med, cong Ac trans Ci fib]
+34.2 +21.3 47 +42 +45 опасность
перегрева
1006.1 1003.7
12 19.06 ЮЗ 3 10 км 6/3 600 м
[Sc Ac trans Ci fib]
+31.8 +20.4 51 +39 +39 очень
душно
1006.7 1004.3 +35.2
15 19.06 штиль 0 10 км 5/3 600 м
[Sc Ac trans Ci fib]
+27.8 +21.5 69 +36 +36 очень
душно
1009.5 1007.1
18 19.06 Ю 2 10 км 5/3 600 м
[Sc Ac trans Ci fib]
+26.4 +22.5 79 +35 +35 очень
душно
1009.9 1007.5
21 19.06 ЮВ 3 10 км 5/3 600 м
[Sc Ac trans Ci fib]
+24.8 +22.9 89 +33 +33 очень
душно
1007.6 1005.2
00 20.06 СВ 2 9000 м 6/3 540 м
[Sc Ac trans Ci fib]
+25.8 +22.5 82 +34 +34 очень
душно
1009.0 1006.6 +24.4
03 20.06 ЮВ 3 10 км 6/4 600 м
[Sc Ac trans Ci fib]
+30.2 +23.5 67 +41 +46 опасность
перегрева
1010.4 1008.0
06 20.06 З 5 10 км 9/5 570 м
[Sc Ac trans Ci fib]
+33.0 +22.9 55 +43 +46 опасность
перегрева
1009.2 1006.7
09 20.06 ЮЗ 5 10 км 9/5 570 м
[Sc Ac trans Ci fib]
+33.0 +22.2 53 +42 +43 опасность
перегрева
1008.0 1005.6
12 20.06 ЮЗ 8 9000 м слаб. дождь 9/5 540 м
[Sc Ac As Ci fib]
+28.2 +21.9 69 +36 +36 очень
душно
1008.7 1006.3 +35.0 0.0
15 20.06 ЮЗ 2 10 км {дождь} 8/3 570 м
[Sc As op Ci fib]
+27.4 +22.3 74 +36 +36 очень
душно
1010.2 1007.8 0.0
18 20.06 СЗ 2 10 км 8/3 570 м
[Sc Ac trans Ci fib]
+27.2 +22.7 76 +36 +36 очень
душно
1009.8 1007.4
21 20.06 штиль 0 10 км 8/3 570 м
[Sc Ac trans Ci fib]
+26.2 +22.0 78 +34 +34 очень
душно
1007.6 1005.2
00 21.06 Ю 3 10 км 8/3 570 м
[Sc Ac trans Ci fib]
+25.0 +22.6 87 +33 +33 очень
душно
1008.6 1006.2 +24.8 0.0
03 21.06 ЮЗ 1 10 км 8/3 500 м
[Sc Ac trans Ci fib]
+32.0 +21.0 52 +39 +46 очень
душно
1009.2 1006.8
06 21.06 Ю 6 10 км 6/1 600 м
[Sc Ac trans Ci fib]
+34.6 +23.5 53 +46 +51 опасность
перегрева
1008.0 1005.6
09 21.06 СЗ 5 8000 м слаб. дождь 8/5 540 м
[Sc diur, vesp Ac trans Ci fib]
+27.0 +23.4 81 +37 +38 очень
душно
1008.1 1005.7 1
12 21.06 ЮЗ 4 10 км {дождь} 6/4 600 м
[Sc Ac trans Ci fib]
+29.8 +20.5 57 +37 +37 очень
душно
1007.7 1005.2 +35.4 0.0
15 21.06 ЮЗ 7 10 км 8/5 570 м
[Cb cap Ac trans Ci fib]
+27.8 +22.1 71 +36 +36 очень
душно
1010.2 1007.8
18 21.06 З 6 10 км 8/5 570 м
[Sc Ac trans Ci fib]
+29.4 +18.6 52 +34 +34 очень
душно
1008.3 1005.9
21 21.06 ЮВ 2 10 км 8/5 570 м
[Sc Ac trans Ci fib]
+29.0 +19.2 55 +34 +34 очень
душно
1006.4 1004.0
00 22.06 СВ 2 10 км {дождь} 8/5 570 м
[Sc Ac trans Ci fib]
+26.4 +20.6 70 +33 +33 очень
душно
1007.1 1004.7 +24.8 1
03 22.06 ЮЗ 3 10 км 8/4 570 м
[Sc Ac trans Ci fib]
+33.0 +21.2 50 +41 +45 опасность
перегрева
1008.4 1006.0
06 22.06 ЮВ 4 10 км 8/4 500 м
[Cu med, cong As op Ci fib]
+34.0 +21.0 47 +41 +47 опасность
перегрева
1007.3 1004.9
09 22.06 ЮЗ 3 10 км 9/5 540 м
[Cu med, cong As op Ci fib]
+31.2 +21.8 57 +40 +42 очень
душно
1006.7 1004.3
12 22.06 В 1 8000 м слаб. дождь 9/4 540 м
[Sc Ac trans Ci fib]
+25.6 +24.1 91 +35 +35 очень
душно
1008.3 1005.9 +35.0 5
15 22.06 СВ 3 9000 м {дождь} 9/5 540 м
[Sc Ac trans Ci fib]
+25.0 +23.7 93 +34 +34 очень
душно
1009.0 1006.6 2
18 22.06 В 2 9000 м 9/5 540 м
[Sc Ac trans Ci fib]
+27.0 +22.2 75 +35 +35 очень
душно
1007.8 1005.4 2
21 22.06 С 2 9000 м 9/5 540 м
[Sc Ac trans Ci fib]
+27.2 +22.7 76 +36 +36 очень
душно
1006.6 1004.2
00 23.06 Ю 2 10 км 8/4 540 м
[Sc Ac As Ci fib]
+26.6 +22.4 78 +35 +35 очень
душно
1007.1 1004.7 +24.8 6
03 23.06 ЮВ 3 10 км 8/4 540 м
[Sc Ac As Ci fib]
+30.6 +22.2 61 +40 +44 очень
душно
1007.6 1005.2
06 23.06 СЗ 5 10 км 9/5 540 м
[Sc Ac As Ci fib]
+30.4 +23.4 66 +41 +44 опасность
перегрева
1007.4 1004.9
09 23.06 Ю 3 3000 м слаб. дождь 10/6 450 м
[Cb cap Ac As Ci fib]
+26.0 +24.2 90 +36 +38 очень
душно
1007.5 1005.1 5
12 23.06 З 3 8000 м слаб. дождь 10/6 500 м
[Cu Sc As op Ci fib]
+25.0 +23.5 91 +34 +34 очень
душно
1007.7 1005.3 +33.0 5
15 23.06 З 3 7000 м {дождь} 9/5 500 м
[Cu Sc As op Ci fib]
+25.8 +23.4 87 +35 +35 очень
душно
1009.2 1006.8 0.0
18 23.06 З 2 6000 м 8/4 500 м
[Cu Sc As op Ci fib]
+26.0 +23.6 87 +35 +35 очень
душно
1010.3 1007.9
21 23.06 ЮВ 2 5000 м 8/4 500 м
[Cu Sc As op Ci fib]
+24.8 +22.6 88 +33 +33 очень
душно
1007.8 1005.4
00 24.06 ЮВ 2 10 км {дождь} 8/4 500 м
[Cu Sc As op Ci fib]
+25.0 +23.2 90 +33 +34 очень
душно
1009.1 1006.7 +24.4 10
03 24.06 штиль 0 10 км 6/3 600 м
[Sc Ac trans Ci fib]
+28.8 +22.6 69 +38 +47 очень
душно
1009.3 1006.9
06 24.06 З 3 10 км 6/3 600 м
[Sc Ac trans Ci fib]
+32.6 +22.4 55 +42 +52 опасность
перегрева
1008.0 1005.6
09 24.06 Ю 5 10 км 6/4 540 м
[Sc Ac trans Ci fib]
+32.6 +21.4 52 +41 +43 опасность
перегрева
1006.1 1003.7
12 24.06 СВ 2 10 км 6/4 540 м
[Sc Ac trans Ci fib]
+30.0 +22.3 63 +39 +39 очень
душно
1008.1 1005.7 +33.4
15 24.06 СВ 3 9000 м 8/4 540 м
[Sc Ac trans Ci fib]
+28.6 +22.4 69 +37 +37 очень
душно
1010.4 1008.0
18 24.06 СВ 3 9000 м 8/4 540 м
[Sc As op Ci fib]
+26.2 +22.9 82 +35 +35 очень
душно
1009.7 1007.3

 

Местоположение метеостанции Банда-Ачех (Индонезия): широта 5.52 долгота 95.42 высота над уровнем моря 21 м.

В архиве по умолчанию представлена погода в Банда-Ачехе за последнюю неделю. Архивные данные за месяц целиком и за предыдущие месяцы, начиная с января 2011 года, Вы можете получить, выбрав интересующий диапазон дат из раскрывающегося списка и нажав кнопку "Ввод!".


*Определитесь, кто Вы:
робот инопланетянин человек

Внимание! Время в таблицах - всемирное. Для получения местного времени необходимо прибавить поправку, которая равна 7 ч.

Смотрите также архив погоды в соседних городах и на ближайших метеорологических станциях:

Погода в Сабанге (Индонезия) (40 км)
Погода в Меулабохе (Индонезия) (161 км)
Погода в Лхоксёмаве (Индонезия) (200 км)
Погода в Нанкаури (Андаманские и Никобарские острова, Индия) (344 км)
Погода в Белаване (Индонезия) (411 км)
Погода на Пхукете (Таиланд) (421 км)
Погода в Медан Полония (Индонезия) (422 км)
Погода в Пхукет аэропорту (Таиланд) (432 км)
Погода на Ко Ланта (Таиланд) (459 км)
Погода в Такуа Па (Таиланд) (470 км)

Пояснения к столбцам:

Ветер - указаны скорость ветра в м/с - средняя за 10 мин, порывы в срок и между сроками (в фигурных скобках) и направление, откуда дует ветер: С - северный, СВ - северо-восточный, В - восточный, ЮВ - юго-восточный, Ю - южный, ЮЗ - юго-западный, З - западный, СЗ - северо-западный.
Видимость - горизонтальная дальность видимости в метрах или километрах. При видимости от 1 до 10 км при отсутствии осадков обычно наблюдается дымка, при ухудшении видимости до 1 км и менее - туман. В сухую погоду видимость может ухудшаться дымом, пылью или мглою.
Явления - указаны атмосферные явления, наблюдавшиеся в срок или в последний час перед сроком; фигурными скобками обозначены явления, наблюдавшиеся между сроками (за 1-3 часа до срока); квадратными скобками обозначены град или гололедные отложения с указанием их диаметра в мм.
Облачность - указаны через наклонную черту общая и нижняя облачность в баллах и высота нижней границы облаков в метрах; квадратными скобками обозначены формы облаков: Ci - перистые, Cs - перисто-слоистые, Cc - перисто-кучевые, Ac - высококучевые, As - высокослоистые, Sc - слоисто-кучевые, Ns - слоисто-дождевые, Cu - кучевые, Cb - кучево-дождевые. Подробнее классификацию облаков см. в Атласе облаков (PDF).
T - Температура воздуха - температура, измеренная на высоте 2 м над землей.
Td - Температура точки росы - температура, при понижении до которой содержащийся в воздухе водяной пар достигнет насыщения.
f - Относительная влажность воздуха - влажноcть воздуха, измеренная на высоте 2 м над землей.
Te - Эффективная температура - температура, которую ощущает одетый по сезону человек в тени. Характеристика душности погоды. При расчете учитывается влияние влажности воздуха и скорости ветра на теплоощущения человека.
Tes - Эффективная температура на солнце - температура, которую ощущает человек, с поправкой на солнечный нагрев. Характеристика знойности погоды. Зависит от высоты солнца над горизонтом, облачности и скорости ветра. Ночью, в пасмурную погоду, а также при ветре 12 м/с и более поправка равна нулю.
P - Атмосферное давление - приведенное к уровню моря атмосферное давление.
Po - Атмосферное давление - измеренное на уровне метеостанции атмосферное давление.
Tmin - Минимальная температура - минимум температуры воздуха на высоте 2 м над землей.
Tmax - Максимальная температура - максимум температуры воздуха на высоте 2 м над землей.
R - Количество осадков - Количество выпавших осадков за период времени, мм. При наведении курсора мыши на число - период времени, за который выпало указанное количество осадков.
R24 - Количество осадков - Количество выпавших осадков за 24 часа, мм.
S - Снежный покров - Высота снежного покрова, см. При наведении курсора мыши на число - состояние снежного покрова и степень покрытия местности в баллах.